Cross City, FL

11:05 AM EST on November 18, 2019 (GMT -0500)
Cross City

Weather History for KCTY - October, 2019

Change the Weather History Date:

Wednesday, October 23, 2019

  Actual Average Record
Temperature  
Mean Temperature 63 °F 68 °F  
Max Temperature 77 °F 81 °F 89 °F (2015)
Min Temperature 49 °F 55 °F 39 °F (2011)
Degree Days  
Heating Degree Days 2    
Month to date heating degree days 4  
Since 1 July heating degree days 4  
Cooling Degree Days 0    
Month to date cooling degree days 234  
Year to date cooling degree days 2991  
Growing Degree Days 14 (Base 50)    
Moisture  
Dew Point 49 °F    
Average Humidity 61    
Maximum Humidity 89    
Minimum Humidity 25    
Precipitation  
Precipitation 0.00 in 0.09 in 0.68 in (2005)
Month to date precipitation 1.95 2.70  
Year to date precipitation 49.42 42.53  
Sea Level Pressure  
Sea Level Pressure 30.11 in    
Wind  
Wind Speed 7 mph (NNE)    
Max Wind Speed 12 mph    
Max Gust Speed 18 mph    
Visibility 10 miles    
Events      
T = Trace of Precipitation, MM = Missing Value Source: NWS Daily Summary

Daily Weather History Graph

Daily Weather History Graph

Search for Another Location

Airport or City:

Astronomy

Oct. 23, 2019 Rise Set
Actual Time 7:39 AM EDT 6:53 PM EDT
Civil Twilight 7:14 AM EDT 7:18 PM EDT
Nautical Twilight 6:46 AM EDT 7:46 PM EDT
Astronomical Twilight 6:19 AM EDT 8:13 PM EDT
Moon 2:29 AM EDT (10/23) 4:14 PM EDT (10/23)
Length of Visible Light 12h 03m
Length of Day
11h 14m
Waning Crescent, 27% of the Moon is Illuminated
Oct 23
Waning Crescent
Oct 27
New
Nov 4
First Quarter
Nov 12
Full
Nov 19
Last Quarter

Hourly Weather History & Observations

Time (EDT) Temp. Dew Point Humidity Pressure Visibility Wind Dir Wind Speed Gust Speed Precip Events Conditions
12:15 AM 65.7 °F 55.9 °F 71% 30.07 in 10.0 mi NNW 8.1 mph - N/A   Unknown
12:35 AM 65.3 °F 52.5 °F 63% 30.06 in 10.0 mi NNW 9.2 mph - N/A   Unknown
12:55 AM 64.8 °F 50.5 °F 60% 30.06 in 10.0 mi NNW 9.2 mph - N/A   Unknown
1:15 AM 63.9 °F 50.0 °F 61% 30.07 in 10.0 mi NNW 6.9 mph - N/A   Unknown
1:35 AM 62.8 °F 50.0 °F 63% 30.07 in 10.0 mi NNW 5.8 mph - N/A   Unknown
1:55 AM 61.7 °F 49.5 °F 64% 30.07 in 10.0 mi NNW 6.9 mph - N/A   Unknown
2:15 AM 60.8 °F 49.1 °F 65% 30.07 in 10.0 mi NNW 6.9 mph - N/A   Unknown
2:35 AM 60.6 °F 48.7 °F 65% 30.07 in 10.0 mi NNW 6.9 mph - N/A   Unknown
2:55 AM 60.3 °F 48.0 °F 64% 30.07 in 10.0 mi North 6.9 mph - N/A   Unknown
3:15 AM 60.1 °F 47.3 °F 63% 30.06 in 10.0 mi North 9.2 mph - N/A   Unknown
3:35 AM 59.5 °F 46.2 °F 61% 30.06 in 10.0 mi North 8.1 mph - N/A   Unknown
3:55 AM 59.0 °F 45.7 °F 61% 30.06 in 10.0 mi North 8.1 mph - N/A   Unknown
4:15 AM 58.8 °F 45.0 °F 60% 30.06 in 10.0 mi North 9.2 mph - N/A   Unknown
4:35 AM 57.6 °F 45.0 °F 63% 30.06 in 10.0 mi North 6.9 mph - N/A   Unknown
4:55 AM 55.4 °F 46.4 °F 72% 30.06 in 10.0 mi North 4.6 mph - N/A   Unknown
5:15 AM 55.4 °F 46.4 °F 72% 30.07 in 10.0 mi North 4.6 mph - N/A   Unknown
5:35 AM 53.6 °F 46.4 °F 77% 30.07 in 10.0 mi North 4.6 mph - N/A   Unknown
5:55 AM 52.5 °F 48.0 °F 85% 30.08 in 10.0 mi North 3.5 mph - N/A   Unknown
6:15 AM 50.9 °F 47.5 °F 88% 30.09 in 10.0 mi North 3.5 mph - N/A   Unknown
6:35 AM 50.9 °F 47.8 °F 89% 30.09 in 10.0 mi North 4.6 mph - N/A   Unknown
6:55 AM 50.4 °F 47.1 °F 89% 30.10 in 10.0 mi North 4.6 mph - N/A   Unknown
7:15 AM 50.0 °F 46.6 °F 88% 30.11 in 10.0 mi North 3.5 mph - N/A   Unknown
7:35 AM 50.2 °F 46.2 °F 86% 30.11 in 10.0 mi North 4.6 mph - N/A   Unknown
7:55 AM 50.5 °F 46.2 °F 85% 30.12 in 10.0 mi North 4.6 mph - N/A   Unknown
8:15 AM 53.1 °F 47.1 °F 80% 30.12 in 10.0 mi North 5.8 mph - N/A   Unknown
8:35 AM 55.8 °F 46.9 °F 72% 30.13 in 10.0 mi NNE 6.9 mph - N/A   Unknown
8:55 AM 57.7 °F 46.6 °F 66% 30.14 in 10.0 mi NNE 8.1 mph - N/A   Unknown
9:15 AM 59.5 °F 46.6 °F 62% 30.15 in 10.0 mi NNE 9.2 mph - N/A   Unknown
9:35 AM 61.3 °F 46.6 °F 58% 30.15 in 10.0 mi NNE 10.4 mph - N/A   Unknown
9:55 AM 63.0 °F 46.2 °F 54% 30.15 in 10.0 mi NNE 10.4 mph 18.4 mph N/A   Unknown
10:15 AM 63.9 °F 45.5 °F 51% 30.16 in 10.0 mi NE 13.8 mph 17.3 mph N/A   Unknown
10:35 AM 64.0 °F 45.1 °F 50% 30.15 in 10.0 mi NNE 11.5 mph 17.3 mph N/A   Unknown
10:55 AM 65.7 °F 46.6 °F 50% 30.16 in 10.0 mi NE 9.2 mph - N/A   Unknown
11:15 AM 67.6 °F 46.4 °F 46% 30.16 in 10.0 mi NNE 15.0 mph 18.4 mph N/A   Unknown
11:35 AM 68.4 °F 45.7 °F 44% 30.16 in 10.0 mi NNE 16.1 mph - N/A   Unknown
11:55 AM 69.3 °F 45.3 °F 42% 30.15 in 10.0 mi NE 11.5 mph - N/A   Unknown
12:15 PM 69.6 °F 44.4 °F 40% 30.15 in 10.0 mi NE 12.7 mph 18.4 mph N/A   Unknown
12:35 PM 71.1 °F 45.0 °F 39% 30.14 in 10.0 mi NNE 12.7 mph 18.4 mph N/A   Unknown
12:55 PM 71.2 °F 46.2 °F 41% 30.14 in 10.0 mi NE 9.2 mph - N/A   Unknown
1:15 PM 72.1 °F 46.4 °F 40% 30.13 in 10.0 mi NNE 11.5 mph - N/A   Unknown
1:35 PM 73.2 °F 47.1 °F 39% 30.12 in 10.0 mi NNE 10.4 mph - N/A   Unknown
1:55 PM 73.8 °F 45.7 °F 37% 30.11 in 10.0 mi NE 9.2 mph - N/A   Unknown
2:15 PM 74.3 °F 46.8 °F 37% 30.10 in 10.0 mi ENE 9.2 mph - N/A   Unknown
2:35 PM 74.8 °F 46.0 °F 36% 30.09 in 10.0 mi NE 11.5 mph - N/A   Unknown
2:55 PM 75.6 °F 46.9 °F 36% 30.09 in 10.0 mi NNE 9.2 mph - N/A   Unknown
3:15 PM 76.1 °F 46.8 °F 35% 30.08 in 10.0 mi NNE 10.4 mph - N/A   Unknown
3:35 PM 75.9 °F 45.1 °F 33% 30.08 in 10.0 mi North 10.4 mph - N/A   Unknown
3:55 PM 76.5 °F 46.0 °F 34% 30.08 in 10.0 mi ENE 6.9 mph - N/A   Unknown
4:15 PM 76.3 °F 47.3 °F 36% 30.08 in 10.0 mi NE 5.8 mph - N/A   Unknown
4:35 PM 75.7 °F 46.8 °F 36% 30.08 in 10.0 mi ENE 6.9 mph - N/A   Unknown
4:55 PM 76.3 °F 47.8 °F 37% 30.08 in 10.0 mi NE 8.1 mph - N/A   Unknown
5:15 PM 75.7 °F 47.5 °F 37% 30.08 in 10.0 mi NE 8.1 mph - N/A   Unknown
5:35 PM 75.2 °F 48.4 °F 39% 30.08 in 10.0 mi NE 6.9 mph - N/A   Unknown
5:55 PM 74.7 °F 48.6 °F 40% 30.08 in 10.0 mi NE 6.9 mph - N/A   Unknown
6:15 PM 73.8 °F 49.1 °F 42% 30.09 in 10.0 mi NE 4.6 mph - N/A   Unknown
6:35 PM 71.2 °F 52.9 °F 52% 30.09 in 10.0 mi NNE 4.6 mph - N/A   Unknown
7:15 PM 65.1 °F 55.9 °F 72% 30.10 in 10.0 mi Calm Calm - N/A   Unknown
7:35 PM 63.1 °F 56.5 °F 79% 30.11 in 10.0 mi NE 3.5 mph - N/A   Unknown
7:55 PM 61.9 °F 55.9 °F 81% 30.12 in 10.0 mi Calm Calm - N/A   Unknown
8:15 PM 61.3 °F 56.3 °F 83% 30.12 in 10.0 mi NNE 3.5 mph - N/A   Unknown
8:35 PM 61.3 °F 56.3 °F 83% 30.12 in 10.0 mi NNE 3.5 mph - N/A   Unknown
8:55 PM 61.2 °F 55.4 °F 81% 30.12 in 10.0 mi NE 3.5 mph - N/A   Unknown
9:15 PM 59.7 °F 55.0 °F 84% 30.12 in 10.0 mi NNE 3.5 mph - N/A   Unknown
9:35 PM 61.2 °F 55.0 °F 80% 30.13 in 10.0 mi NNE 3.5 mph - N/A   Unknown
9:55 PM 60.4 °F 54.9 °F 82% 30.14 in 10.0 mi NE 4.6 mph - N/A   Unknown
10:15 PM 60.6 °F 54.7 °F 81% 30.14 in 10.0 mi NE 4.6 mph - N/A   Unknown
10:35 PM 63.3 °F 52.7 °F 68% 30.14 in 10.0 mi ENE 4.6 mph - N/A   Unknown
10:55 PM 63.0 °F 53.1 °F 70% 30.15 in 10.0 mi East 4.6 mph - N/A   Unknown
11:15 PM 62.6 °F 53.2 °F 71% 30.15 in 10.0 mi ENE 4.6 mph - N/A   Unknown
11:35 PM 62.8 °F 53.6 °F 72% 30.14 in 10.0 mi ENE 5.8 mph - N/A   Unknown
11:55 PM 62.6 °F 53.6 °F 72% 30.15 in 10.0 mi ENE 4.6 mph - N/A   Unknown